STARLINK-30954, 58407

Orbit data source: Space-Track

STARLINK-30954, 58407 is a payload satellite owned by SpaceX/Seattle (US) in LEO that was launched on Wed, 22 Nov 2023 UTC via an FALCON 9 launch vehicle from the Air Force Eastern Test Range (AFETR). Payload-class satellites include a variety of spacecraft equipped with specific instruments for various scientific and technological missions. These include communications satellites like Starlink; space stations such as the ISS; scientific satellites like the Hubble; Earth observation satellites from companies like Planet Labs, Umbra, and HawkEye 360; GPS; miniature CubeSats for education and research; and military/defense satellites.

Loading next visibility...
Identifier
58407, 2023-180F
Orbit
LEO
Country
Flag of USUS
Related business
Manufacturer
SpaceX/Seattle
Mission
Operational Commercial Communications
Bus & Motor
STARLINK V2M, Unknown motor
Mass
730 kg wet, ~700 kg dry
Launch date (UTC)
2023-11-22 (2 years ago)
Launch vehicle
FALCON 9
Launch site
Air Force Eastern Test Range (AFETR)
Object type
Payload
Rocket body
Debris
Shape & HBR
Box + 2 Pan, 14.5 m
Radar Cross Section
33.884 m², Large (>1 m²)

Expand to show TLE details & history
Last TLE update: 14 hours ago

TLE from 14 hours ago
0 STARLINK-30954
1 58407U 23180F   25250.24114175  .00003512  00000-0  27488-3 0  9990
2 58407  43.0006 332.4941 0000377 252.7953 107.2849 15.02542871 99997
Epoch: 2025-09-07T05:47Z
TLE epoch observation values (Epoch: 2025-09-07T05:47:14.647Z)
Latitude
0.00006°
Longitude
-100.88031°
Altitude
558.914 km
Speed
7.584 km/s
True Right ascension
22h 09m 58s
True Declination
0° 00' 00"
Sunlit
Object was in full shadow at epoch
Visualization orbit readout
Latitude
Unknown
Longitude
Unknown
Altitude
Unknown
Speed
Unknown
Apparent Right ascension
Unknown
Apparent Declination
Unknown
Sunlit
N/A
Visualization observer readout
Local Sidereal Time
11:42:51
Azimuth
Unknown
Elevation
Unknown
Doppler factor
Unknown
Orbital elements
Apogee altitude
561.244 km
Perigee altitude
560.721 km
Semi-major axis
6,939.119 km
Eccentricity
0.00004
Inclination
43.0006°
RAAN
332.4941°
Arg. of periapsis
252.7953°
True anomaly
107.28902°
Mean anomaly
107.2849°
Eccentric anomaly
107.28696°
Mean motion
3.7548 °/min
Orbital period
95.88 mins
BSTAR
0.00027488
Loading maneuver chart data...
Computing Atmospheric mass density...
Loading historical data...
Loading historical data...
Loading historical data...
Loading historical data...
Loading historical data...
Loading historical data...
Loading historical data...

Documentation

Showing up to 5 results
|